Location: ??????
(36.0225°N, 43.9463°E)
Time: 18:34:40
(UTC+00:00)

Daily predictions for brighter satellites

Satellite Brightness Start Highest point End
(mag) Time Altitude Azimuth Time Altitude Azimuth Time Altitude Azimuth
Cosmos 2322 4.1 16:48:29 10° S 16:53:42 41° ESE 16:58:57 10° NE
Ariane Rocket 3.5 16:53:14 10° SE 16:58:02 44° ENE 17:02:51 10° N
ATLAS 3B R/B 2.6 16:52:50 10° SSW 16:59:17 70° ESE 17:05:55 10° NE
In-Cosmos 22 4.0 16:54:29 10° S 16:59:42 73° E 17:05:00 10° NNE
COSMOS 2428 3.5 16:55:04 10° SSE 17:00:00 31° ESE 17:04:57 10° NE
SL-24 DEB 4.4 16:56:58 10° S 17:01:43 88° W 17:06:31 10° N
Cosmos 1758 3.3 16:57:54 10° N 17:01:51 68° E 17:05:47 10° SSE
Cosmos 1741 Rocket 4.2 16:56:46 10° N 17:02:00 59° ENE 17:07:13 10° SSE
Cosmos 1727 Rocket 4.0 16:55:45 10° S 17:02:00 70° E 17:08:14 10° NNE
Cosmos 2263 Rocket 3.9 16:58:22 10° NW 17:03:21 32° WSW 17:08:19 10° SSW
Cosmos 1605 Rocket 4.1 16:57:59 10° N 17:04:23 85° W 17:10:39 10° S
USA 234 3.8 16:59:34 10° SSE 17:05:57 56° SW 17:12:22 10° NW
ERS-2 2.2 17:03:19 10° N 17:06:59 83° WNW 17:10:37 10° SSW
Cosmos 1975 Rocket 3.1 17:03:46 10° S 17:08:04 62° E 17:12:25 10° NNE
Helios 1A Rocket 3.5 17:05:59 10° S 17:09:56 56° WSW 17:13:55 10° NNW
ATLAS CENTAUR R/B 2.7 17:07:04 10° N 17:11:03 32° NE 17:14:55 11° ESE
ATLAS 2A CENTAUR R/B 4.3 16:48:38 10° WSW 17:15:09 41° S 17:21:51 11° ESE
Cosmos 1459 Rocket 4.5 17:12:50 10° N 17:18:31 41° ENE 17:23:48 12° SSE
IGS 5A 4.2 17:17:01 12° SE 17:20:27 37° ENE 17:24:18 10° N
Cosmos 1461 2.9 17:16:34 10° NNW 17:20:40 77° WSW 17:24:16 12° SSE
Yuri Rocket 4.3 17:16:00 10° WSW 17:20:46 39° S 17:26:38 12° ESE
Cosmos 1470 4.3 17:17:26 10° NNW 17:21:04 36° W 17:24:40 10° SSW
SL-8 R/B 3.8 17:16:48 10° NW 17:21:37 77° NE 17:25:37 15° ESE
Cosmos 1110 Rocket 4.5 17:17:23 10° SSW 17:22:30 65° WNW 17:27:41 10° NNE
Cosmos 1953 2.7 17:18:39 10° N 17:22:35 47° E 17:25:55 13° SSE
Landsat 7 4.3 17:24:27 14° SE 17:28:14 43° ENE 17:32:44 10° N
SPOT 3 Rocket 4.0 17:25:00 14° SE 17:29:13 45° ENE 17:34:09 10° N
Cosmos 1908 3.5 17:25:42 10° N 17:29:27 50° E 17:32:15 16° SSE
Cosmos 1000 Rocket 4.4 17:24:43 10° S 17:30:47 68° E 17:36:53 10° NNE
Aureole 1 Rocket 4.5 17:26:16 10° NNW 17:33:10 78° ENE 17:40:48 13° SSE
Cosmos 2219 Rocket 2.1 17:27:41 10° SSW 17:33:21 78° ESE 17:39:02 10° NNE
Cosmos 1802 Rocket 4.5 17:27:41 10° N 17:33:43 45° E 17:38:33 16° SE
Lacrosse 5 4.3 17:38:18 10° W 17:40:50 14° WSW 17:43:22 10° SSW
OBJECT-B 3.5 17:41:12 10° SW 17:43:22 17° W 17:45:31 10° NW
Resurs 01 Rocket 1.6 17:40:42 16° SSE 17:44:08 78° ENE 17:48:33 10° N
BREEZE-M DEB (TANK) 4.1 17:47:14 10° NNW 17:49:20 17° NNE 17:50:28 12° ENE
Cosmos 2333 Rocket 2.7 17:45:17 10° SSW 17:50:58 63° WNW 17:56:40 10° NNE
Cosmos 1544 Rocket 3.5 17:49:15 10° N 17:53:41 69° E 17:56:16 24° SSE
Cosmos 1844 3.8 17:50:55 10° NNW 17:56:30 75° WSW 18:00:31 20° SSE
Cosmos 1455 Rocket 3.5 17:53:04 10° NNW 17:57:29 60° W 18:01:10 14° S
Cosmos 2237 Rocket 2.8 17:58:01 23° SSE 18:00:33 35° ESE 18:05:35 10° NE
Spot 2 Rocket 4.1 17:58:59 25° SE 18:01:24 41° ENE 18:06:10 10° N
Cosmos 2123 Rocket 4.0 17:55:29 11° S 18:01:28 75° E 18:07:47 10° N
ASTRO E2 3.6 17:59:33 10° WSW 18:03:05 31° SSW 18:03:43 29° S
Cosmos 405 3.1 17:59:55 10° N 18:03:17 51° E 18:04:04 41° SE
Cosmos 1346 Rocket 3.8 18:03:25 27° E 18:03:45 28° E 18:07:13 10° NNE
Cosmos 1025 Rocket 3.8 18:00:43 10° SSW 18:04:58 53° W 18:09:15 10° N
X-37B 2.0 18:02:21 10° W 18:05:21 40° NNW 18:08:23 10° NE
CZ-2C R/B 4.0 18:06:32 10° N 18:11:18 74° WNW 18:15:52 11° SSW
Cosmos 2228 4.4 18:09:20 10° NNE 18:12:50 23° ENE 18:13:22 22° E
JB-3 4.3 18:11:00 10° NNE 18:15:03 81° E 18:17:03 30° S
Cosmos 1340 3.7 18:12:42 11° SSW 18:16:06 45° W 18:19:44 10° N
Meteor 2-5 Rocket 3.6 18:11:59 18° S 18:16:09 82° E 18:21:48 10° N
DELTA 2 R/B (1) 3.9 18:11:23 10° SW 18:16:31 39° SSE 18:19:28 22° E
SL-4 R/B 4.3 18:13:18 10° W 18:17:01 27° NNW 18:20:31 10° NNE
ARIANE 5 R/B 2.9 18:18:29 38° SE 18:19:49 53° ENE 18:24:12 10° N
Cosmos 2061 Rocket 4.0 18:16:10 10° N 18:22:36 87° E 18:26:17 27° S
Cosmos 1536 Rocket 3.9 18:20:22 20° SSW 18:23:24 66° W 18:27:49 10° N
Meteor 2-10 Rocket 4.1 18:19:39 10° N 18:24:18 37° ENE 18:25:25 33° ESE
MetOp-B 4.4 18:22:04 24° S 18:25:17 64° WSW 18:30:36 10° NNW
Cosmos 1626 4.4 18:23:20 10° SW 18:26:18 23° WNW 18:29:18 10° NNW
Cosmos 1300 2.5 18:22:53 10° N 18:26:42 83° E 18:27:22 59° SSE
OE (NEXTSAT) 4.2 18:26:19 10° WSW 18:29:46 85° NW 18:31:05 35° NE
Cosmos 1844 Rocket 4.2 18:25:56 10° NW 18:30:46 29° WSW 18:34:41 14° SSW
SL-08 R/B 4.5 18:25:24 10° N 18:31:43 87° W 18:34:59 30° S
Meteor 1-24 Rocket 3.6 18:29:05 26° S 18:32:12 89° WNW 18:37:45 10° N
Cosmos 2016 Rocket 4.1 18:27:13 10° N 18:33:18 71° W 18:36:57 26° S
CARTOSAT-1 3.4 18:32:31 51° SSE 18:33:34 85° ENE 18:37:53 10° N
DNEPR-1 R/B 4.1 18:31:47 10° NW 18:35:59 52° WSW 18:37:15 39° SSW
SPOT 1/Viking Rocket 4.0 18:35:45 28° SSW 18:38:16 55° W 18:43:19 10° NNW
Terra 2.3 18:37:38 39° E 18:38:27 43° ENE 18:42:56 10° N
Cosmos 2278 Rocket 2.7 18:34:58 10° N 18:40:27 48° ENE 18:42:04 38° ESE
COSMOS 2428 4.4 18:39:01 10° SW 18:44:08 33° WNW 18:49:19 10° N
ATLAS CENTAUR R/B 3.2 18:46:07 10° WNW 18:49:49 25° WSW 18:51:04 22° SW
Cosmos 1725 Rocket 4.4 18:44:37 10° NNW 18:50:41 59° W 18:53:55 28° SSW
Cosmos 968 Rocket 3.6 18:47:31 10° NNW 18:52:36 66° WSW 18:53:55 47° SSW
Cosmos 192 4.2 18:54:09 62° SSE 18:54:52 75° ESE 18:59:47 10° NNE
NOSS 0 Rocket 4.4 18:48:51 10° SW 18:54:56 59° WNW 19:01:06 10° NNE
NOSS 3-1 (C) 3.7 19:00:50 39° E 19:00:50 39° E 19:05:21 10° NE
SPOT 5 3.0 19:04:11 54° SSW 19:05:08 67° WSW 19:09:57 10° NNW
Cosmos 389 Rocket 3.5 19:08:59 10° NNW 19:11:30 43° NW 19:11:30 43° NW
Cosmos 1980 4.5 19:07:54 15° SW 19:12:25 50° WNW 19:17:57 10° N
Cosmos 1486 Rocket 4.3 19:11:15 10° NNW 19:16:19 53° WSW 19:17:04 49° SW
Cosmos 1726 Rocket 3.6 19:14:17 10° N 19:18:20 72° NNE 19:18:20 72° NNE
ATLAS CENTAUR R/B 2.7 19:21:45 48° WSW 19:22:56 72° NW 19:31:46 10° NE
ERS-1 Rocket 3.7 19:23:39 39° WSW 19:24:27 42° W 19:29:14 10° NNW
Meteor 1-21 Rocket 4.1 19:24:17 69° ESE 19:24:37 71° E 19:30:20 10° NNE
SJ 16-02 3.5 19:21:59 10° NNE 19:24:25 16° ENE 19:24:25 16° ENE
Cosmos 1867 4.2 19:20:00 10° NW 19:25:07 42° WSW 19:25:36 41° SW
USA 215 3.7 19:18:57 10° ENE 19:24:09 42° ESE 19:24:09 42° ESE
Okean 1-7 Rocket 4.2 19:27:12 48° NE 19:27:12 48° NE 19:30:36 10° NNE
Cosmos 2058 Rocket 3.6 19:25:21 10° N 19:28:53 51° NNE 19:28:53 51° NNE
Geosat 4.0 19:34:06 73° WSW 19:34:06 73° WSW 19:39:06 10° NNW
Cosmos 1606 Rocket 4.3 19:31:40 10° NNW 19:35:40 45° W 19:35:40 45° W
Cosmos 1354 Rocket 3.9 19:30:40 10° NNW 19:36:00 77° WSW 19:36:04 77° WSW
Cosmos 1892 Rocket 4.3 19:38:13 48° WNW 19:38:13 48° WNW 19:42:25 10° N
Cosmos 2034 Rocket 4.2 19:35:00 10° N 19:41:00 52° E 19:41:19 52° E
X-37B 3.5 19:40:24 10° NW 19:42:33 17° N 19:42:51 17° N
Cosmos 2237 Rocket 3.9 19:39:47 10° WSW 19:44:35 29° WNW 19:49:25 10° N
SL-16 R/B 2.1 19:44:50 82° SW 19:45:05 86° WNW 19:50:47 10° NNE
Cosmos 1455 3.8 19:45:25 10° NNW 19:47:45 32° NW 19:47:45 32° NW
Cosmos 1607 4.1 19:48:05 10° NW 19:54:16 56° WSW 19:54:32 56° SW
Cosmos 2369 Rocket 4.0 19:52:46 10° N 19:56:55 20° NE 19:58:12 19° ENE
DELTA 2 R/B (1) 4.5 19:57:13 10° WSW 20:07:07 17° ENE 20:08:19 10° ENE
ALOS 2 4.1 20:06:35 30° NE 20:06:35 30° NE 20:09:28 10° N
Tsikada Rocket 3.8 20:09:54 80° E 20:09:54 80° E 20:16:03 10° N
Terra 4.0 20:16:31 17° W 20:16:31 17° W 20:19:21 10° NW
Cosmos 2278 Rocket 4.0 20:20:05 10° NW 20:23:54 20° W 20:23:54 20° W
Cosmos 2297 3.8 20:26:06 10° NNW 20:31:04 69° NW 20:31:04 69° NW
Cosmos 1943 Rocket 2.3 20:26:20 10° NNW 20:31:11 67° NNE 20:31:11 67° NNE
Exosat Rocket 4.2 20:36:34 56° ENE 20:36:34 56° ENE 20:41:12 10° NNE
USA 32 4.5 20:37:58 10° N 20:42:16 58° NNW 20:42:16 58° NNW
USA 229 DEB 4.2 20:42:46 42° W 20:44:25 51° NW 20:50:57 10° NNE
USA 229 4.1 20:42:55 42° W 20:44:31 52° NW 20:51:04 10° NNE
Cosmos 2279 Rocket 4.4 20:40:55 10° N 20:46:54 49° E 20:46:54 49° E
Cosmos 1943 3.5 20:55:11 62° NNE 20:55:11 62° NNE 20:59:53 10° NNE
Cosmos 1634 Rocket 3.9 20:49:18 10° N 20:55:28 83° NW 20:55:28 83° NW
GEOS 3 Rocket 4.0 20:58:59 60° NE 20:58:59 60° NE 21:04:02 10° NNW
SJ 16-02 3.3 20:59:25 10° NNW 21:01:23 23° NW 21:01:23 23° NW
Thor Agena Rocket 4.0 20:58:21 10° NNE 21:02:27 57° NNE 21:02:27 57° NNE
NOSS 3-1 (A) 4.4 21:03:22 32° WNW 21:04:31 35° NW 21:10:01 10° NNE
Cosmos 841 Rocket 4.3 21:08:05 44° NE 21:08:05 44° NE 21:11:44 10° NNE
USA 215 4.0 21:01:54 10° NE 21:08:06 48° NW 21:11:27 27° W
Cosmos 1603 3.9 21:08:48 65° NNW 21:08:48 65° NNW 21:13:51 10° NNE
Nadezhda 4 Rocket 4.3 21:16:42 52° E 21:16:42 52° E 21:22:20 10° NNE
Cosmos 1937 Rocket 4.0 21:21:49 10° NNW 21:26:19 58° NNE 21:26:19 58° NNE
ATLAS 5 CENTAUR R/B 3.3 21:31:34 28° NNE 21:31:34 28° NNE 21:33:41 10° NNE
Cosmos 1932 4.4 21:25:22 10° NNW 21:31:21 81° NNE 21:31:21 81° NNE
Meteor 2-2 Rocket 4.5 21:26:57 10° N 21:32:49 68° ENE 21:32:49 68° ENE
Cosmos 1898 Rocket 4.2 21:29:18 10° NNW 21:33:08 49° NW 21:33:08 49° NW
USA 267 4.1 21:32:48 13° ESE 21:38:19 47° NE 21:44:31 10° NNW
Resurs 1-4 Rocket 3.9 21:34:54 10° NE 21:38:37 22° E 21:38:37 22° E
Cosmos 2369 Rocket 2.9 21:35:43 10° NNW 21:39:58 44° WNW 21:39:58 44° WNW
Cosmos 1814 Rocket 4.4 21:46:39 60° N 21:46:39 60° N 21:50:53 10° NNE
DELTA 2 R/B (1) 4.0 21:47:51 42° NW 21:49:32 60° N 21:55:00 10° E
Aureole 3 Rocket 4.2 21:55:29 10° N 22:00:19 54° E 22:00:45 53° E
Cosmos 1092 Rocket 3.9 22:02:32 74° ESE 22:02:43 75° E 22:08:51 10° N
CZ-2D R/B 2.7 22:09:15 10° NNE 22:14:07 45° E 22:14:07 45° E
BREEZE-M R/B 3.5 22:15:42 44° NNE 22:15:42 44° NNE 22:18:43 10° NE
CZ-4 R/B 4.3 22:11:55 10° N 22:15:48 58° NNW 22:15:48 58° NNW
Cosmos 2221 4.1 22:14:02 10° NNW 22:16:20 29° NW 22:16:20 29° NW
Cosmos 2098 Rocket 4.4 22:20:15 34° NW 22:20:15 34° NW 22:23:10 10° NNW
NPP 4.4 22:14:00 10° NNE 22:19:05 41° E 22:19:19 41° ESE
Cosmos 2195 Rocket 4.3 22:21:24 76° SW 22:21:52 82° W 22:28:09 10° N
MOZ.5/SAFIR/RUBIN 5/SL-8 4.1 22:22:31 66° NNE 22:22:31 66° NNE 22:26:49 10° N
SL-16 R/B 3.3 22:21:00 30° ESE 22:23:34 46° ENE 22:29:25 10° N
Lacrosse 4 Rocket 3.0 22:22:13 10° NNW 22:24:14 28° NNW 22:24:14 28° NNW
Helios 1A 4.0 22:32:07 41° NNW 22:32:07 41° NNW 22:34:54 10° NNW
Meteor 2-15 4.3 22:27:42 10° NNW 22:33:48 71° W 22:34:08 69° WSW
Meteor 2-15 Rocket 4.3 22:28:29 10° N 22:34:40 90° WSW 22:35:25 71° S
Cosmos 1782 4.4 22:33:17 10° NNE 22:36:49 29° ENE 22:36:55 29° E
CZ-4C R/B 2.0 22:37:57 64° E 22:37:57 64° E 22:42:56 10° NE
ARGOS Delta rocket 4.0 22:32:25 10° N 22:37:53 84° WNW 22:38:02 83° WSW
UNK 3.7 22:54:35 71° ESE 22:54:52 74° ENE 22:59:30 10° N
Meteor 2-21 4.5 22:53:31 53° SSE 22:55:02 76° E 23:01:14 10° N
AQUA 3.7 22:51:00 10° NNE 22:55:46 75° ESE 22:55:59 73° SE
Cosmos 2026 Rocket 4.4 23:01:09 42° WSW 23:02:05 45° W 23:08:10 10° N
Cosmos 44 3.7 23:01:38 54° SE 23:02:16 58° ESE 23:07:35 10° NE
Gbstr 26 Del rocket 4.0 23:03:29 37° ESE 23:03:29 37° ESE 23:07:46 10° ENE
Cosmos 1553 Rocket 3.9 22:58:07 10° N 23:04:22 84° E 23:06:28 44° SSE
COSMOS 2406 3.8 23:06:57 38° SSE 23:08:31 48° ESE 23:13:57 10° NNE
Cosmos 1151 Rocket 3.2 23:04:56 10° N 23:09:10 65° E 23:09:35 60° ESE
Meteor 2-3 Rocket 4.0 23:09:48 47° WSW 23:10:28 50° WNW 23:15:54 10° N
OAO 3 Rocket 3.4 23:11:38 53° SE 23:11:38 53° SE 23:15:40 10° E
S3M 4.3 23:07:11 10° N 23:13:21 65° E 23:16:55 26° SSE
Cosmos 773 Rocket 4.4 23:12:41 44° SSE 23:14:02 57° ESE 23:19:13 10° NNE
CENTAUR R/B 4.4 23:08:31 10° NNW 23:16:21 43° NE 23:24:43 10° ESE
Cosmos 783 Rocket 4.5 23:15:20 55° S 23:16:26 77° ESE 23:21:39 10° NNE
Resurs 1-4 Rocket 2.7 23:13:52 10° N 23:18:50 41° WNW 23:19:41 38° W
SL-4 R/B 4.0 23:16:34 10° NNW 23:19:36 24° NNE 23:22:29 10° E
ADEOS II 2.0 23:15:26 10° NNE 23:20:43 90° WNW 23:22:04 52° SSW
Cosmos 1933 4.5 23:17:15 10° NNW 23:20:06 32° WNW 23:20:06 32° WNW
USA 267 3.4 23:20:03 42° SSW 23:21:15 46° SW 23:27:30 10° NW
IRS-1D 3.5 23:17:46 10° NNE 23:22:49 72° ESE 23:24:15 46° S
Cosmos 1417 Rocket 4.4 23:19:15 10° N 23:25:38 80° W 23:28:26 36° S
Alouette 2 Rocket 3.6 23:22:11 10° N 23:26:07 87° E 23:27:44 42° SSE
SL-19 R/B 4.3 23:20:52 10° N 23:26:11 62° WNW 23:27:42 45° SW
IDEFIX/ARIANE 42P 3.1 23:21:11 10° NNE 23:26:16 52° E 23:28:32 31° SSE
Cosmos 1812 3.3 23:22:46 10° N 23:26:32 53° E 23:27:26 42° SE
ASTEX 1 4.1 23:24:00 23° SE 23:26:53 50° E 23:31:38 10° N
Tianhe-1 2.4 23:29:47 34° NNW 23:29:57 35° N 23:32:53 10° ENE
Cosmos 1862 3.2 23:31:14 70° S 23:31:40 89° ESE 23:35:44 10° N
Cosmos 1408 Rocket 3.5 23:31:55 55° S 23:32:53 87° E 23:37:22 10° N
Lacrosse 5 rocket 2.1 23:29:34 10° NNW 23:33:04 46° NE 23:36:41 10° ESE
Cosmos 1766 Rocket 4.1 23:34:47 40° W 23:35:02 41° W 23:39:16 10° N
DELTA 2 R/B (1) 3.4 23:30:39 10° WNW 23:36:13 86° SSW 23:41:46 10° ESE
Cosmos 1515 Rocket 4.1 23:33:36 10° N 23:37:59 57° E 23:40:34 23° SSE
ATLAS 2A CENTAUR R/B 4.4 23:39:03 16° SE 23:39:03 16° SE 23:41:19 10° ESE
Cosmos 2266 Rocket 3.8 23:36:36 37° SSW 23:39:10 78° W 23:45:14 10° N
Helios 1B rocket 3.7 23:36:15 10° NNW 23:39:38 26° WNW 23:39:45 26° WNW
Meteor 2-16 Rocket 4.4 23:37:07 37° SSW 23:39:39 75° W 23:45:47 10° N
Cosmos 1271 Rocket 2.7 23:36:27 10° NNW 23:40:07 60° W 23:40:07 60° W
Cosmos 1833 Rocket 2.6 23:38:15 41° SSW 23:40:19 83° WNW 23:46:00 10° NNE
USA 281 4.3 23:41:57 10° SE 23:48:08 46° ENE 23:54:21 10° N
Meteor 1-28 Rocket 3.1 23:50:58 47° S 23:51:57 76° WSW 23:55:46 10° NNW
CZ-2D R/B 3.7 23:50:15 10° NNW 23:53:55 20° WNW 23:55:26 17° W
Cosmos 1125 Rocket 4.4 23:49:57 10° NW 23:54:27 29° W 23:54:49 29° WSW
GPS 2-04 Rocket1 4.2 23:57:08 22° SSE 23:57:08 22° SSE 23:58:53 10° SE
